| time (UTC) | temp C | wind direction | speed KPH | gust KPH | rain 1hr cm | rain 24hr cm | rain mn cm | humidity % | barometer mb |
| 20260510190647 | 27 | 112 | 3.2 | 17.7 | 0.00 | 0.00 | 0.00 | 75 | 1014.9 |
| 20260510190146 | 27 | 120 | 3.2 | 14.5 | 0.00 | 0.00 | 0.00 | 75 | 1014.6 |
| 20260510185652 | 28 | 135 | 4.8 | 16.1 | 0.00 | 0.00 | 0.00 | 72 | 1014.6 |
| 20260510185147 | 27 | 150 | 9.7 | 20.9 | 0.00 | 0.00 | 0.00 | 74 | 1014.6 |
| 20260510184647 | 28 | 154 | 11.3 | 19.3 | 0.00 | 0.00 | 0.00 | 71 | 1014.6 |
| 20260510184147 | 27 | 153 | 11.3 | 19.3 | 0.00 | 0.00 | 0.00 | 74 | 1014.9 |
| 20260510183646 | 28 | 148 | 8.0 | 14.5 | 0.00 | 0.00 | 0.00 | 70 | 1014.6 |
| 20260510183147 | 28 | 101 | 8.0 | 12.9 | 0.00 | 0.00 | 0.00 | 68 | 1014.9 |
| 20260510182646 | 28 | 6 | 1.6 | 17.7 | 0.00 | 0.00 | 0.00 | 69 | 1015.2 |
| 20260510182147 | 28 | 138 | 16.1 | 17.7 | 0.00 | 0.00 | 0.00 | 69 | 1015.2 |
| 20260510181646 | 28 | 344 | 4.8 | 16.1 | 0.00 | 0.00 | 0.00 | 69 | 1015.2 |
| 20260510181146 | 28 | 55 | 6.4 | 12.9 | 0.00 | 0.00 | 0.00 | 68 | 1015.2 |
| 20260510180648 | 28 | 57 | 8.0 | 14.5 | 0.00 | 0.00 | 0.00 | 68 | 1015.2 |
| 20260510180146 | 28 | 49 | 9.7 | 11.3 | 0.00 | 0.00 | 0.00 | 71 | 1015.6 |
| 20260510175646 | 27 | 73 | 8.0 | 14.5 | 0.00 | 0.00 | 0.00 | 71 | 1015.6 |
| 20260510175147 | 27 | 163 | 6.4 | 16.1 | 0.00 | 0.00 | 0.00 | 71 | 1015.6 |
| 20260510174647 | 27 | 54 | 9.7 | 12.9 | 0.00 | 0.00 | 0.00 | 72 | 1015.9 |
| 20260510174146 | 27 | 159 | 6.4 | 11.3 | 0.00 | 0.00 | 0.00 | 71 | 1015.6 |
| 20260510173646 | 28 | 80 | 8.0 | 11.3 | 0.00 | 0.00 | 0.00 | 69 | 1015.6 |
| 20260510173147 | 28 | 99 | 3.2 | 16.1 | 0.00 | 0.00 | 0.00 | 72 | 1015.6 |
| 20260510172647 | 27 | 158 | 3.2 | 12.9 | 0.00 | 0.00 | 0.00 | 72 | 1015.6 |
| 20260510172146 | 27 | 146 | 14.5 | 16.1 | 0.00 | 0.00 | 0.00 | 72 | 1015.9 |
| 20260510171650 | 27 | 168 | 4.8 | 8.0 | 0.00 | 0.00 | 0.00 | 72 | 1015.9 |
| 20260510171146 | 27 | 37 | 6.4 | 14.5 | 0.00 | 0.00 | 0.00 | 74 | 1015.9 |
| 20260510170646 | 27 | 61 | 11.3 | 14.5 | 0.00 | 0.00 | 0.00 | 73 | 1015.9 |
| 20260510170146 | 27 | 26 | 8.0 | 14.5 | 0.00 | 0.00 | 0.00 | 72 | 1015.9 |
| 20260510165647 | 27 | 148 | 8.0 | 11.3 | 0.00 | 0.00 | 0.00 | 75 | 1015.9 |
| 20260510165146 | 26 | 71 | 6.4 | 12.9 | 0.00 | 0.00 | 0.00 | 75 | 1015.9 |
| 20260510164647 | 27 | 99 | 6.4 | 11.3 | 0.00 | 0.00 | 0.00 | 74 | 1015.9 |
| 20260510164146 | 26 | 327 | 1.6 | 9.7 | 0.00 | 0.00 | 0.00 | 76 | 1015.9 |
| 20260510163650 | 26 | 93 | 9.7 | 11.3 | 0.00 | 0.00 | 0.00 | 77 | 1015.9 |
| 20260510163146 | 26 | 17 | 4.8 | 11.3 | 0.00 | 0.00 | 0.00 | 77 | 1015.9 |
| 20260510162647 | 26 | 60 | 6.4 | 12.9 | 0.00 | 0.00 | 0.00 | 78 | 1015.9 |
| 20260510162147 | 26 | 63 | 4.8 | 11.3 | 0.00 | 0.00 | 0.00 | 78 | 1016.3 |
| 20260510161646 | 26 | 37 | 8.0 | 14.5 | 0.00 | 0.00 | 0.00 | 77 | 1015.9 |
| 20260510161147 | 26 | 72 | 8.0 | 9.7 | 0.00 | 0.00 | 0.00 | 78 | 1016.3 |
| 20260510160647 | 25 | 150 | 4.8 | 11.3 | 0.00 | 0.00 | 0.00 | 81 | 1015.9 |
| 20260510160146 | 26 | 76 | 11.3 | 14.5 | 0.00 | 0.00 | 0.00 | 78 | 1015.9 |
| 20260510155649 | 26 | 78 | 12.9 | 17.7 | 0.00 | 0.00 | 0.00 | 77 | 1015.9 |
| 20260510155147 | 26 | 73 | 6.4 | 9.7 | 0.00 | 0.00 | 0.00 | 79 | 1015.9 |
| 20260510154646 | 25 | 80 | 8.0 | 12.9 | 0.00 | 0.00 | 0.00 | 79 | 1015.9 |
| 20260510154147 | 25 | 97 | 6.4 | 14.5 | 0.00 | 0.00 | 0.00 | 79 | 1015.9 |
| 20260510153647 | 25 | 52 | 8.0 | 14.5 | 0.00 | 0.00 | 0.00 | 80 | 1015.9 |
| 20260510153146 | 25 | 85 | 6.4 | 12.9 | 0.00 | 0.00 | 0.00 | 81 | 1015.9 |
| 20260510152647 | 25 | 71 | 8.0 | 17.7 | 0.00 | 0.00 | 0.00 | 82 | 1015.9 |
| 20260510152147 | 25 | 58 | 6.4 | 14.5 | 0.00 | 0.00 | 0.00 | 83 | 1015.9 |
| 20260510151647 | 25 | 63 | 6.4 | 14.5 | 0.00 | 0.00 | 0.00 | 84 | 1015.9 |
| 20260510151150 | 25 | 24 | 8.0 | 14.5 | 0.00 | 0.00 | 0.00 | 83 | 1015.9 |
| 20260510150646 | 25 | 40 | 1.6 | 9.7 | 0.00 | 0.00 | 0.00 | 84 | 1015.9 |
| 20260510150148 | 25 | 49 | 6.4 | 11.3 | 0.00 | 0.00 | 0.00 | 85 | 1015.9 |
| 20260510145646 | 24 | 44 | 3.2 | 12.9 | 0.00 | 0.00 | 0.00 | 86 | 1016.3 |
| 20260510145146 | 23 | 5 | 4.8 | 9.7 | 0.00 | 0.00 | 0.00 | 87 | 1016.3 |
| 20260510144647 | 23 | 40 | 4.8 | 16.1 | 0.00 | 0.00 | 0.00 | 87 | 1016.3 |
| 20260510144146 | 23 | 348 | 3.2 | 12.9 | 0.00 | 0.00 | 0.00 | 88 | 1016.3 |
| 20260510143646 | 23 | 35 | 8.0 | 12.9 | 0.00 | 0.00 | 0.00 | 88 | 1016.3 |
| 20260510143147 | 23 | 68 | 12.9 | 17.7 | 0.00 | 0.00 | 0.00 | 88 | 1015.9 |
| 20260510142646 | 23 | 47 | 12.9 | 14.5 | 0.00 | 0.00 | 0.00 | 89 | 1015.9 |
| 20260510142146 | 23 | 45 | 3.2 | 12.9 | 0.00 | 0.00 | 0.00 | 90 | 1015.9 |
| 20260510141650 | 23 | 71 | 12.9 | 16.1 | 0.00 | 0.00 | 0.00 | 91 | 1015.9 |
| 20260510141147 | 23 | 51 | 6.4 | 14.5 | 0.00 | 0.00 | 0.00 | 91 | 1015.9 |
| 20260510140648 | 22 | 57 | 14.5 | 17.7 | 0.00 | 0.00 | 0.00 | 92 | 1015.9 |
| 20260510140147 | 22 | 90 | 6.4 | 17.7 | 0.00 | 0.00 | 0.00 | 93 | 1015.9 |
| 20260510135647 | 22 | 42 | 9.7 | 19.3 | 0.00 | 0.00 | 0.00 | 94 | 1015.9 |
| 20260510135147 | 22 | 63 | 6.4 | 12.9 | 0.00 | 0.00 | 0.00 | 95 | 1015.9 |
| 20260510134646 | 22 | 54 | 9.7 | 11.3 | 0.00 | 0.00 | 0.00 | 96 | 1015.9 |
| 20260510134146 | 21 | 21 | 8.0 | 12.9 | 0.00 | 0.00 | 0.00 | 96 | 1015.9 |
| 20260510133647 | 21 | 68 | 8.0 | 9.7 | 0.00 | 0.00 | 0.00 | 97 | 1015.9 |
| 20260510133147 | 21 | 38 | 3.2 | 9.7 | 0.00 | 0.00 | 0.00 | 97 | 1015.9 |
| 20260510132647 | 21 | 46 | 9.7 | 16.1 | 0.00 | 0.00 | 0.00 | 98 | 1015.9 |
| 20260510132146 | 21 | 29 | 11.3 | 12.9 | 0.00 | 0.00 | 0.00 | 98 | 1015.9 |
| 20260510131646 | 21 | 36 | 8.0 | 12.9 | 0.00 | 0.00 | 0.00 | 99 | 1015.9 |
| 20260510131147 | 21 | 24 | 6.4 | 16.1 | 0.00 | 0.00 | 0.00 | 99 | 1015.6 |
| 20260510130647 | 21 | 336 | 3.2 | 9.7 | 0.00 | 0.00 | 0.00 | 99 | 1015.6 |
| 20260510130146 | 21 | 10 | 3.2 | 11.3 | 0.00 | 0.00 | 0.00 | 99 | 1015.6 |
| 20260510125646 | 21 | 4 | 8.0 | 9.7 | 0.00 | 0.00 | 0.00 | 99 | 1015.6 |
| 20260510125146 | 21 | 57 | 4.8 | 11.3 | 0.00 | 0.00 | 0.00 | 99 | 1015.2 |
| 20260510124650 | 21 | 34 | 4.8 | 8.0 | 0.00 | 0.00 | 0.00 | 99 | 1015.2 |
| 20260510124146 | 20 | 33 | 4.8 | 9.7 | 0.00 | 0.00 | 0.00 | 99 | 1015.2 |
| 20260510123646 | 20 | 2 | 1.6 | 8.0 | 0.00 | 0.00 | 0.00 | 99 | 1014.9 |
| 20260510123146 | 20 | 27 | 3.2 | 9.7 | 0.00 | 0.00 | 0.00 | 99 | 1014.9 |
| 20260510122646 | 20 | 38 | 3.2 | 8.0 | 0.00 | 0.00 | 0.00 | 99 | 1014.9 |
| 20260510122148 | 20 | 59 | 11.3 | 11.3 | 0.00 | 0.00 | 0.00 | 99 | 1014.6 |
| 20260510121647 | 20 | 53 | 3.2 | 8.0 | 0.00 | 0.00 | 0.00 | 99 | 1014.6 |
| 20260510121147 | 20 | 66 | 6.4 | 9.7 | 0.00 | 0.00 | 0.00 | 99 | 1014.6 |
| 20260510120646 | 20 | 43 | 6.4 | 9.7 | 0.00 | 0.00 | 0.00 | 99 | 1014.6 |
| 20260510120147 | 20 | 48 | 4.8 | 8.0 | 0.00 | 0.00 | 0.00 | 99 | 1014.6 |
| 20260510115646 | 20 | 32 | 4.8 | 4.8 | 0.00 | 0.00 | 0.00 | 99 | 1014.6 |
| 20260510115147 | 20 | 7 | 3.2 | 8.0 | 0.00 | 0.00 | 0.00 | 99 | 1014.6 |
| 20260510114649 | 20 | 20 | 3.2 | 4.8 | 0.00 | 0.00 | 0.00 | 99 | 1014.2 |
| 20260510114147 | 20 | 315 | 3.2 | 6.4 | 0.00 | 0.00 | 0.00 | 99 | 1014.2 |
| 20260510113647 | 20 | 93 | 1.6 | 6.4 | 0.00 | 0.00 | 0.00 | 99 | 1014.2 |
| 20260510113147 | 20 | 91 | 1.6 | 11.3 | 0.00 | 0.00 | 0.00 | 99 | 1014.2 |
| 20260510112646 | 20 | 86 | 8.0 | 8.0 | 0.00 | 0.00 | 0.00 | 99 | 1014.2 |
| 20260510112147 | 20 | 46 | 3.2 | 6.4 | 0.00 | 0.00 | 0.00 | 99 | 1013.9 |
| 20260510111647 | 20 | 63 | 4.8 | 9.7 | 0.00 | 0.00 | 0.00 | 99 | 1013.9 |
| 20260510111147 | 20 | 56 | 6.4 | 9.7 | 0.00 | 0.00 | 0.00 | 99 | 1013.9 |
| 20260510110647 | 20 | 75 | 9.7 | 14.5 | 0.00 | 0.00 | 0.00 | 99 | 1013.5 |
| 20260510110147 | 20 | 76 | 4.8 | 8.0 | 0.00 | 0.00 | 0.00 | 99 | 1013.5 |
| 20260510105647 | 20 | 35 | 3.2 | 8.0 | 0.00 | 0.00 | 0.00 | 99 | 1013.5 |
| 20260510105147 | 20 | 21 | 3.2 | 4.8 | 0.00 | 0.00 | 0.00 | 99 | 1013.5 |
| 20260510104647 | 20 | 357 | 3.2 | 4.8 | 0.00 | 0.00 | 0.00 | 99 | 1013.5 |
| 20260510104147 | 20 | 51 | 4.8 | 8.0 | 0.00 | 0.00 | 0.00 | 99 | 1013.2 |
| 20260510103646 | 20 | 20 | 3.2 | 6.4 | 0.00 | 0.00 | 0.00 | 99 | 1013.2 |
| 20260510103147 | 20 | 61 | 3.2 | 4.8 | 0.00 | 0.00 | 0.00 | 99 | 1012.9 |
| 20260510102646 | 20 | 45 | 4.8 | 8.0 | 0.00 | 0.00 | 0.00 | 99 | 1013.2 |
| 20260510102151 | 20 | 331 | 1.6 | 6.4 | 0.00 | 0.00 | 0.00 | 99 | 1012.9 |
| 20260510101647 | 20 | 20 | 1.6 | 3.2 | 0.00 | 0.00 | 0.00 | 99 | 1012.9 |
| 20260510100700 | 20 | 41 | 3.2 | 8.0 | 0.00 | 0.00 | 0.00 | 99 | 1012.9 |
| 20260510100147 | 20 | 54 | 4.8 | 11.3 | 0.00 | 0.00 | 0.00 | 99 | 1012.9 |
| 20260510095646 | 20 | 60 | 0.0 | 9.7 | 0.00 | 0.00 | 0.00 | 99 | 1012.9 |
| 20260510095147 | 20 | 285 | 3.2 | 6.4 | 0.00 | 0.00 | 0.00 | 99 | 1012.5 |
| 20260510094646 | 20 | 75 | 4.8 | 6.4 | 0.00 | 0.00 | 0.00 | 99 | 1012.9 |
| 20260510094147 | 20 | 332 | 3.2 | 4.8 | 0.00 | 0.00 | 0.00 | 99 | 1012.9 |
| 20260510093647 | 20 | 337 | 1.6 | 6.4 | 0.00 | 0.00 | 0.00 | 99 | 1012.5 |
| 20260510093147 | 20 | 38 | 1.6 | 4.8 | 0.00 | 0.00 | 0.00 | 99 | 1012.9 |
| 20260510092647 | 20 | 67 | 4.8 | 8.0 | 0.00 | 0.00 | 0.00 | 99 | 1012.5 |
| 20260510092146 | 20 | 26 | 8.0 | 8.0 | 0.00 | 0.00 | 0.00 | 99 | 1012.5 |
| 20260510091646 | 20 | 11 | 4.8 | 8.0 | 0.00 | 0.00 | 0.00 | 99 | 1012.5 |
| 20260510091148 | 20 | 3 | 4.8 | 6.4 | 0.00 | 0.00 | 0.00 | 99 | 1012.5 |
| 20260510090646 | 20 | 27 | 8.0 | 9.7 | 0.00 | 0.00 | 0.00 | 99 | 1012.2 |
| 20260510090146 | 20 | 41 | 3.2 | 8.0 | 0.00 | 0.00 | 0.00 | 99 | 1012.5 |
| 20260510085647 | 20 | 25 | 4.8 | 6.4 | 0.00 | 0.00 | 0.00 | 99 | 1012.5 |
| 20260510085146 | 20 | 357 | 3.2 | 8.0 | 0.00 | 0.00 | 0.00 | 99 | 1012.5 |
| 20260510084646 | 20 | 42 | 3.2 | 8.0 | 0.00 | 0.00 | 0.00 | 99 | 1012.5 |
| 20260510084146 | 20 | 13 | 4.8 | 8.0 | 0.00 | 0.00 | 0.00 | 99 | 1012.5 |
| 20260510083646 | 20 | 19 | 8.0 | 8.0 | 0.00 | 0.00 | 0.00 | 99 | 1012.5 |
| 20260510083146 | 20 | 7 | 6.4 | 8.0 | 0.00 | 0.00 | 0.00 | 99 | 1012.5 |
| 20260510082646 | 20 | 28 | 8.0 | 8.0 | 0.00 | 0.00 | 0.00 | 99 | 1012.5 |
| 20260510082146 | 20 | 4 | 4.8 | 8.0 | 0.00 | 0.00 | 0.00 | 99 | 1012.5 |
| 20260510081649 | 20 | 9 | 6.4 | 8.0 | 0.00 | 0.00 | 0.00 | 99 | 1012.2 |
| 20260510081146 | 20 | 352 | 1.6 | 4.8 | 0.00 | 0.00 | 0.00 | 98 | 1012.2 |
| 20260510080648 | 20 | 34 | 3.2 | 6.4 | 0.00 | 0.00 | 0.00 | 99 | 1012.2 |
| 20260510080147 | 20 | 23 | 3.2 | 8.0 | 0.00 | 0.00 | 0.00 | 99 | 1012.2 |
| 20260510075646 | 20 | 19 | 4.8 | 6.4 | 0.00 | 0.00 | 0.00 | 98 | 1012.2 |
| 20260510075147 | 20 | 326 | 1.6 | 4.8 | 0.00 | 0.00 | 0.00 | 98 | 1011.9 |
| 20260510074646 | 20 | 332 | 1.6 | 8.0 | 0.00 | 0.00 | 0.00 | 99 | 1012.2 |
| 20260510074147 | 20 | 337 | 3.2 | 6.4 | 0.00 | 0.00 | 0.00 | 99 | 1012.2 |
| 20260510073647 | 20 | 12 | 3.2 | 4.8 | 0.00 | 0.00 | 0.00 | 99 | 1011.9 |
| 20260510073147 | 19 | 45 | 1.6 | 4.8 | 0.00 | 0.00 | 0.00 | 99 | 1011.9 |
| 20260510072647 | 20 | 358 | 3.2 | 6.4 | 0.00 | 0.00 | 0.00 | 99 | 1011.9 |
| 20260510072146 | 19 | 338 | 0.0 | 8.0 | 0.00 | 0.00 | 0.00 | 99 | 1011.9 |
| 20260510071654 | 20 | 52 | 0.0 | 6.4 | 0.00 | 0.00 | 0.00 | 99 | 1011.9 |
| 20260510071147 | 20 | 35 | 3.2 | 6.4 | 0.00 | 0.00 | 0.00 | 99 | 1011.9 |
| 20260510070646 | 20 | 355 | 3.2 | 8.0 | 0.00 | 0.00 | 0.00 | 99 | 1011.9 |
| 20260510070146 | 19 | 2 | 3.2 | 8.0 | 0.00 | 0.00 | 0.00 | 99 | 1012.2 |
| 20260510065646 | 19 | 334 | 4.8 | 6.4 | 0.00 | 0.00 | 0.00 | 99 | 1011.9 |
| 20260510065146 | 20 | 1 | 3.2 | 8.0 | 0.00 | 0.00 | 0.00 | 99 | 1011.9 |
| 20260510064646 | 20 | 18 | 4.8 | 6.4 | 0.00 | 0.00 | 0.00 | 99 | 1011.9 |
| 20260510064148 | 19 | 355 | 4.8 | 6.4 | 0.00 | 0.00 | 0.00 | 99 | 1012.2 |
| 20260510063647 | 20 | 335 | 0.0 | 4.8 | 0.00 | 0.00 | 0.00 | 99 | 1011.9 |
| 20260510063146 | 20 | 344 | 4.8 | 6.4 | 0.00 | 0.00 | 0.00 | 99 | 1012.2 |
| 20260510062646 | 20 | 327 | 4.8 | 8.0 | 0.00 | 0.00 | 0.00 | 99 | 1012.2 |
| 20260510062147 | 20 | 10 | 6.4 | 8.0 | 0.00 | 0.00 | 0.00 | 99 | 1011.9 |
| 20260510061646 | 20 | 348 | 4.8 | 8.0 | 0.00 | 0.00 | 0.00 | 99 | 1011.9 |
| 20260510061147 | 20 | 330 | 1.6 | 6.4 | 0.00 | 0.00 | 0.00 | 99 | 1011.9 |
| 20260510060647 | 20 | 330 | 3.2 | 4.8 | 0.00 | 0.00 | 0.00 | 99 | 1011.9 |
| 20260510060146 | 20 | 310 | 4.8 | 6.4 | 0.00 | 0.00 | 0.00 | 99 | 1012.2 |
| 20260510055647 | 20 | 325 | 1.6 | 3.2 | 0.00 | 0.00 | 0.00 | 99 | 1011.9 |
| 20260510055147 | 20 | 298 | 3.2 | 4.8 | 0.00 | 0.00 | 0.00 | 99 | 1012.2 |
| 20260510054646 | 20 | 344 | 3.2 | 6.4 | 0.00 | 0.00 | 0.00 | 99 | 1012.2 |
| 20260510054146 | 20 | 37 | 3.2 | 4.8 | 0.00 | 0.00 | 0.00 | 98 | 1011.9 |
| 20260510053647 | 20 | 341 | 0.0 | 4.8 | 0.05 | 0.00 | 0.00 | 98 | 1011.9 |
| 20260510053147 | 20 | 7 | 1.6 | 4.8 | 0.05 | 0.00 | 0.00 | 98 | 1011.9 |
| 20260510052646 | 20 | 41 | 3.2 | 6.4 | 0.00 | 0.00 | 0.00 | 98 | 1011.9 |
| 20260510052147 | 20 | 16 | 3.2 | 6.4 | 0.00 | 0.00 | 0.00 | 98 | 1011.9 |
| 20260510051647 | 20 | 33 | 1.6 | 6.4 | 0.00 | 0.00 | 0.00 | 98 | 1011.9 |
| 20260510051146 | 20 | 355 | 3.2 | 6.4 | 0.00 | 0.00 | 0.00 | 98 | 1011.9 |
| 20260510050646 | 20 | 142 | 3.2 | 4.8 | 0.00 | 0.00 | 0.00 | 98 | 1011.9 |
| 20260510050146 | 20 | 143 | 3.2 | 8.0 | 0.00 | 0.00 | 0.00 | 98 | 1011.9 |
| 20260510045648 | 20 | 128 | 4.8 | 9.7 | 0.00 | 0.00 | 4.17 | 98 | 1011.9 |
| 20260510045146 | 20 | 146 | 3.2 | 9.7 | 0.00 | 0.00 | 4.17 | 99 | 1012.2 |
| 20260510044647 | 20 | 154 | 11.3 | 14.5 | 0.00 | 0.00 | 4.17 | 99 | 1011.9 |
| 20260510044146 | 20 | 155 | 3.2 | 8.0 | 0.00 | 0.00 | 4.17 | 99 | 1011.9 |
| 20260510043647 | 20 | 0 | 3.2 | 4.8 | 0.00 | 0.00 | 4.17 | 99 | 1012.2 |
| 20260510043146 | 20 | 107 | 0.0 | 4.8 | 0.00 | 0.00 | 4.17 | 99 | 1012.2 |
| 20260510042646 | 20 | 35 | 3.2 | 6.4 | 0.00 | 0.00 | 4.17 | 99 | 1012.5 |
| 20260510042147 | 20 | 147 | 4.8 | 11.3 | 0.00 | 0.00 | 4.17 | 99 | 1012.2 |
| 20260510041646 | 20 | 112 | 6.4 | 9.7 | 0.00 | 0.00 | 4.17 | 99 | 1012.2 |
| 20260510041146 | 20 | 142 | 4.8 | 12.9 | 0.00 | 0.00 | 4.17 | 99 | 1011.9 |
| 20260510040646 | 20 | 170 | 9.7 | 16.1 | 0.00 | 0.00 | 4.17 | 99 | 1012.2 |
| 20260510040147 | 20 | 162 | 8.0 | 19.3 | 0.00 | 0.00 | 4.17 | 99 | 1011.9 |
| 20260510035647 | 20 | 160 | 11.3 | 17.7 | 0.00 | 0.00 | 4.17 | 99 | 1012.2 |
| 20260510035146 | 20 | 174 | 11.3 | 14.5 | 0.00 | 0.00 | 4.17 | 99 | 1012.5 |
| 20260510034646 | 20 | 172 | 9.7 | 16.1 | 0.00 | 0.00 | 4.17 | 99 | 1012.5 |
| 20260510034146 | 20 | 165 | 9.7 | 11.3 | 0.00 | 0.00 | 4.17 | 99 | 1012.9 |
| 20260510033646 | 20 | 139 | 4.8 | 11.3 | 0.00 | 0.00 | 4.17 | 99 | 1012.9 |
| 20260510033146 | 20 | 176 | 4.8 | 8.0 | 0.00 | 0.00 | 4.17 | 99 | 1012.9 |
| 20260510032646 | 20 | 173 | 4.8 | 9.7 | 0.00 | 0.00 | 4.17 | 99 | 1012.9 |
| 20260510032146 | 20 | 157 | 4.8 | 8.0 | 0.00 | 0.00 | 4.17 | 99 | 1012.9 |
| 20260510031647 | 20 | 199 | 6.4 | 6.4 | 0.00 | 0.00 | 4.17 | 99 | 1013.2 |
| 20260510031147 | 20 | 189 | 3.2 | 6.4 | 0.00 | 0.00 | 4.17 | 99 | 1012.9 |
| 20260510030646 | 20 | 208 | 3.2 | 4.8 | 0.00 | 0.00 | 4.17 | 99 | 1013.2 |
| 20260510030148 | 20 | 180 | 3.2 | 4.8 | 0.00 | 0.00 | 4.17 | 99 | 1013.2 |
| 20260510025647 | 20 | 347 | 3.2 | 4.8 | 0.00 | 0.00 | 4.17 | 99 | 1012.9 |
| 20260510025146 | 20 | 293 | 3.2 | 4.8 | 0.00 | 0.00 | 4.17 | 99 | 1012.9 |
| 20260510024646 | 20 | 186 | 3.2 | 4.8 | 0.00 | 0.00 | 4.17 | 99 | 1012.9 |
| 20260510024147 | 20 | 184 | 4.8 | 8.0 | 0.00 | 0.00 | 4.17 | 99 | 1012.9 |
| 20260510023646 | 20 | 228 | 4.8 | 11.3 | 0.00 | 0.00 | 4.17 | 99 | 1012.9 |
| 20260510023146 | 20 | 200 | 4.8 | 8.0 | 0.00 | 0.00 | 4.17 | 99 | 1012.5 |
| 20260510022646 | 20 | 251 | 1.6 | 6.4 | 0.00 | 0.00 | 4.17 | 99 | 1012.5 |
| 20260510022146 | 20 | 143 | 4.8 | 8.0 | 0.00 | 0.00 | 4.17 | 98 | 1012.5 |
| 20260510021646 | 20 | 193 | 4.8 | 8.0 | 0.00 | 0.00 | 4.17 | 98 | 1012.5 |
| 20260510021147 | 20 | 180 | 3.2 | 6.4 | 0.00 | 0.00 | 4.17 | 98 | 1012.5 |
| 20260510020646 | 20 | 180 | 4.8 | 8.0 | 0.00 | 0.00 | 4.17 | 98 | 1012.5 |
| 20260510020147 | 20 | 174 | 4.8 | 8.0 | 0.00 | 0.00 | 4.17 | 98 | 1012.5 |
| 20260510015646 | 20 | 127 | 4.8 | 6.4 | 0.00 | 0.00 | 4.17 | 98 | 1012.5 |
| 20260510015148 | 20 | 162 | 4.8 | 14.5 | 0.00 | 0.00 | 4.17 | 98 | 1012.5 |
| 20260510014646 | 20 | 153 | 6.4 | 16.1 | 0.00 | 0.00 | 4.17 | 98 | 1012.2 |
| 20260510014146 | 20 | 189 | 1.6 | 9.7 | 0.00 | 0.00 | 4.17 | 99 | 1012.2 |
| 20260510013646 | 20 | 180 | 1.6 | 8.0 | 0.00 | 0.00 | 4.17 | 99 | 1012.2 |
| 20260510013146 | 20 | 105 | 6.4 | 11.3 | 0.00 | 0.00 | 4.17 | 99 | 1012.2 |
| 20260510012648 | 20 | 139 | 8.0 | 12.9 | 0.00 | 0.00 | 4.17 | 99 | 1011.9 |
| 20260510012146 | 20 | 155 | 4.8 | 12.9 | 0.00 | 0.00 | 4.17 | 99 | 1011.9 |
| 20260510011647 | 20 | 192 | 4.8 | 16.1 | 0.00 | 0.00 | 4.17 | 99 | 1011.9 |
| 20260510011146 | 20 | 184 | 11.3 | 12.9 | 0.00 | 0.00 | 4.17 | 99 | 1011.9 |
| 20260510010647 | 20 | 6 | 1.6 | 9.7 | 0.00 | 0.00 | 4.17 | 99 | 1011.9 |
| 20260510010146 | 20 | 143 | 8.0 | 14.5 | 0.00 | 0.00 | 4.17 | 99 | 1011.9 |
| 20260510005647 | 20 | 173 | 6.4 | 8.0 | 0.00 | 0.00 | 4.17 | 99 | 1011.9 |
| 20260510005148 | 20 | 155 | 3.2 | 17.7 | 0.00 | 0.00 | 4.17 | 99 | 1011.9 |
| 20260510004647 | 20 | 192 | 6.4 | 14.5 | 0.00 | 0.00 | 4.17 | 99 | 1012.2 |
| 20260510004147 | 20 | 209 | 6.4 | 16.1 | 0.13 | 0.00 | 4.17 | 99 | 1011.9 |
| 20260510003647 | 20 | 119 | 8.0 | 12.9 | 0.13 | 0.00 | 4.17 | 99 | 1011.9 |
| 20260510003147 | 20 | 100 | 3.2 | 9.7 | 0.00 | 0.00 | 4.14 | 99 | 1011.9 |
| 20260510002647 | 20 | 144 | 9.7 | 11.3 | 0.00 | 0.00 | 4.14 | 99 | 1011.9 |
| 20260510002147 | 20 | 146 | 4.8 | 8.0 | 0.00 | 0.00 | 4.14 | 99 | 1011.9 |
| 20260510001646 | 20 | 171 | 3.2 | 8.0 | 0.00 | 0.00 | 4.14 | 99 | 1011.9 |
| 20260510001147 | 20 | 179 | 0.0 | 8.0 | 0.00 | 0.00 | 4.14 | 99 | 1011.9 |
| 20260510000647 | 20 | 161 | 4.8 | 9.7 | 0.00 | 0.00 | 4.14 | 99 | 1011.9 |
| 20260510000146 | 20 | 178 | 3.2 | 8.0 | 0.00 | 0.00 | 4.14 | 99 | 1011.9 |
| 20260509235646 | 20 | 177 | 3.2 | 9.7 | 0.00 | 0.00 | 4.14 | 99 | 1011.9 |
| 20260509235146 | 20 | 151 | 3.2 | 9.7 | 0.00 | 0.00 | 4.14 | 99 | 1011.9 |
| 20260509234647 | 20 | 182 | 4.8 | 6.4 | 0.00 | 0.00 | 4.14 | 99 | 1011.9 |
| 20260509234146 | 20 | 170 | 4.8 | 9.7 | 0.00 | 0.00 | 4.14 | 99 | 1011.9 |
| 20260509233646 | 20 | 142 | 3.2 | 8.0 | 0.05 | 0.00 | 4.14 | 99 | 1011.9 |
| 20260509233146 | 20 | 127 | 3.2 | 6.4 | 0.18 | 0.00 | 4.14 | 99 | 1011.5 |
| 20260509232646 | 20 | 126 | 3.2 | 9.7 | 0.18 | 0.00 | 4.14 | 99 | 1011.9 |
| 20260509232146 | 20 | 30 | 3.2 | 4.8 | 0.23 | 0.00 | 4.11 | 99 | 1011.9 |
| 20260509231647 | 20 | 208 | 0.0 | 4.8 | 0.18 | 0.00 | 4.09 | 99 | 1012.2 |
| 20260509231146 | 20 | 207 | 3.2 | 8.0 | 0.13 | 0.00 | 4.09 | 99 | 1011.9 |
| 20260509230647 | 20 | 156 | 8.0 | 11.3 | 0.18 | 0.00 | 4.06 | 99 | 1011.9 |
| 20260509230147 | 20 | 143 | 9.7 | 11.3 | 0.23 | 0.00 | 4.06 | 99 | 1011.9 |
| 20260509225646 | 20 | 170 | 4.8 | 8.0 | 0.13 | 0.00 | 4.04 | 99 | 1011.9 |
| 20260509225146 | 20 | 166 | 8.0 | 11.3 | 0.05 | 0.00 | 4.01 | 99 | 1012.2 |
| 20260509224647 | 20 | 170 | 6.4 | 8.0 | 0.05 | 0.00 | 4.01 | 99 | 1012.2 |
| 20260509224146 | 20 | 172 | 8.0 | 8.0 | 0.00 | 0.00 | 4.01 | 99 | 1011.9 |
| 20260509223648 | 20 | 170 | 6.4 | 8.0 | 0.00 | 0.00 | 4.01 | 99 | 1011.9 |
| 20260509223147 | 20 | 171 | 6.4 | 8.0 | 0.00 | 0.00 | 4.01 | 99 | 1011.9 |
| 20260509222646 | 20 | 167 | 6.4 | 11.3 | 0.00 | 0.00 | 4.01 | 98 | 1011.5 |
| 20260509222147 | 20 | 176 | 6.4 | 9.7 | 0.05 | 0.00 | 4.01 | 98 | 1011.5 |
| 20260509221647 | 21 | 144 | 4.8 | 8.0 | 0.05 | 0.00 | 4.01 | 98 | 1011.2 |
| 20260509221146 | 21 | 254 | 0.0 | 4.8 | 0.00 | 0.00 | 3.99 | 98 | 1011.2 |
| 20260509220646 | 20 | 0 | 0.0 | 3.2 | 0.00 | 0.00 | 3.99 | 98 | 1010.8 |
| 20260509220146 | 20 | 201 | 3.2 | 4.8 | 0.05 | 0.00 | 3.99 | 98 | 1011.2 |
| 20260509215646 | 21 | 315 | 0.0 | 3.2 | 0.05 | 0.00 | 3.99 | 98 | 1011.2 |
| 20260509215146 | 20 | 195 | 0.0 | 6.4 | 0.05 | 0.00 | 3.99 | 98 | 1011.5 |
| 20260509214647 | 20 | 189 | 4.8 | 4.8 | 0.05 | 0.00 | 3.99 | 98 | 1011.2 |
| 20260509214146 | 20 | 203 | 1.6 | 8.0 | 0.05 | 0.00 | 3.99 | 98 | 1011.5 |
| 20260509213647 | 20 | 179 | 6.4 | 14.5 | 0.00 | 0.00 | 3.96 | 98 | 1011.5 |
| 20260509213146 | 20 | 186 | 9.7 | 14.5 | 0.00 | 0.00 | 3.96 | 98 | 1011.2 |
| 20260509212646 | 20 | 172 | 8.0 | 14.5 | 0.00 | 0.00 | 3.96 | 98 | 1011.2 |
| 20260509212147 | 20 | 168 | 11.3 | 17.7 | 0.00 | 0.00 | 3.96 | 97 | 1011.2 |
| 20260509211646 | 20 | 154 | 8.0 | 9.7 | 0.00 | 0.00 | 3.96 | 97 | 1011.2 |
| 20260509211147 | 20 | 169 | 9.7 | 17.7 | 0.00 | 0.00 | 3.96 | 97 | 1011.2 |
| 20260509210649 | 20 | 138 | 6.4 | 14.5 | 0.00 | 0.00 | 3.96 | 97 | 1010.8 |
| 20260509210146 | 20 | 155 | 9.7 | 14.5 | 0.00 | 0.00 | 3.96 | 97 | 1011.2 |
| 20260509205646 | 20 | 180 | 4.8 | 8.0 | 0.00 | 0.00 | 3.96 | 98 | 1011.2 |
| 20260509205146 | 20 | 349 | 3.2 | 6.4 | 0.00 | 0.00 | 3.96 | 98 | 1010.8 |
| 20260509204646 | 20 | 102 | 1.6 | 8.0 | 0.00 | 0.00 | 3.96 | 98 | 1010.8 |
| 20260509204147 | 20 | 150 | 6.4 | 9.7 | 0.00 | 0.00 | 3.96 | 99 | 1010.8 |
| 20260509203646 | 20 | 227 | 4.8 | 12.9 | 0.00 | 0.00 | 3.96 | 99 | 1011.2 |
| 20260509203147 | 20 | 133 | 6.4 | 8.0 | 0.00 | 0.00 | 3.96 | 99 | 1010.8 |
| 20260509202647 | 20 | 168 | 3.2 | 9.7 | 0.00 | 0.00 | 3.96 | 99 | 1011.2 |
| 20260509202147 | 20 | 348 | 4.8 | 8.0 | 0.00 | 0.00 | 3.96 | 99 | 1011.5 |
| 20260509201646 | 20 | 253 | 1.6 | 6.4 | 0.00 | 0.00 | 3.96 | 99 | 1011.5 |
| 20260509201147 | 20 | 177 | 3.2 | 6.4 | 0.05 | 0.00 | 3.96 | 99 | 1011.9 |
| 20260509200646 | 20 | 161 | 6.4 | 8.0 | 0.05 | 0.00 | 3.96 | 99 | 1012.2 |
| 20260509200146 | 20 | 159 | 3.2 | 8.0 | 0.13 | 0.00 | 3.96 | 99 | 1012.2 |
| 20260509195646 | 20 | 84 | 3.2 | 9.7 | 0.23 | 0.00 | 3.96 | 99 | 1012.2 |
| 20260509195146 | 20 | 308 | 1.6 | 8.0 | 0.30 | 0.00 | 3.94 | 99 | 1012.2 |
| 20260509194646 | 20 | 177 | 6.4 | 11.3 | 0.36 | 0.00 | 3.91 | 99 | 1011.9 |
| 20260509194147 | 20 | 176 | 3.2 | 9.7 | 0.30 | 0.00 | 3.89 | 99 | 1011.9 |
| 20260509193646 | 20 | 175 | 3.2 | 9.7 | 0.23 | 0.00 | 3.86 | 99 | 1012.2 |
| 20260509193146 | 20 | 184 | 3.2 | 8.0 | 0.18 | 0.00 | 3.84 | 99 | 1012.2 |
| 20260509192647 | 20 | 147 | 4.8 | 6.4 | 0.13 | 0.00 | 3.81 | 99 | 1012.2 |
| 20260509192147 | 20 | 10 | 1.6 | 4.8 | 0.05 | 0.00 | 3.81 | 99 | 1012.5 |
| 20260509191647 | 20 | 289 | 3.2 | 4.8 | 0.13 | 0.00 | 3.81 | 99 | 1012.5 |
| 20260509191146 | 20 | 261 | 0.0 | 6.4 | 0.23 | 0.00 | 3.78 | 99 | 1012.9 |